RH
21 21 24 29 46 66 74 72 61 52 50 51 52 48 43 39 28 18 14 13 13 12 11 11 11 11 10 9 9 8 7 6 6 6 6 6 5 5 4 5 4 5 8 10 11 14 23 26 27 33 31 23 19 18 12 5 7 6 4 4 4 4 6 9 11 13 14 14 13 12 10 7 5 4 4 8 15 16 15 17 19 23 28 30 29
25 22 22 28 46 65 75 77 69 56 52 55 53 49 44 35 24 17 16 15 15 15 14 14 13 12 11 10 9 8 8 6 6 6 6 6 5 5 5 5 5 4 7 11 12 15 24 27 27 32 31 24 19 18 13 6 6 6 4 4 4 4 5 8 11 12 14 13 13 12 10 7 5 4 4 8 15 15 14 17 19 22 26 30 30
27 27 25 29 43 61 72 74 69 64 62 59 54 49 41 31 23 19 18 18 18 17 17 16 14 13 12 11 10 9 8 7 6 7 6 6 6 5 5 5 5 5 7 12 14 17 26 30 29 32 32 24 18 18 15 7 6 6 4 4 4 4 4 7 10 12 14 14 13 13 10 7 5 4 4 8 14 15 14 16 18 20 25 29 31
24 29 33 36 43 55 66 69 69 69 65 58 55 48 38 30 24 21 21 22 21 19 18 17 15 14 13 12 11 10 8 7 7 7 7 6 6 5 5 5 5 5 7 13 16 18 27 35 32 32 33 23 17 18 14 7 5 7 4 4 4 3 5 6 10 12 13 13 13 13 11 8 5 4 4 7 13 15 15 16 18 19 22 27 30
21 27 40 49 50 55 65 70 71 69 62 56 53 46 39 33 26 24 24 24 22 20 19 18 16 14 14 13 11 10 9 7 7 7 7 7 7 6 6 5 5 6 8 14 19 21 26 38 38 33 34 24 16 17 14 8 5 6 5 4 4 3 5 7 10 12 13 13 13 13 12 8 6 4 4 6 12 16 15 16 18 18 20 24 29
22 33 53 65 61 61 71 76 74 65 59 57 52 47 41 33 28 27 25 24 23 20 19 18 17 16 14 13 12 11 9 8 7 7 8 7 7 6 6 5 5 7 9 14 22 26 27 41 48 40 38 28 16 18 15 9 6 5 6 5 4 4 5 7 10 12 13 13 13 13 12 9 6 5 4 6 10 15 16 16 18 18 19 21 25
28 44 64 79 73 69 81 84 77 67 59 58 52 48 41 33 30 28 26 24 22 20 19 17 16 16 15 14 12 11 10 8 8 7 8 8 8 7 6 6 6 7 10 14 22 31 31 42 56 52 47 37 21 19 18 10 6 5 6 6 5 4 5 6 9 12 14 12 12 14 12 10 7 5 4 5 9 13 15 16 18 19 19 20 22
31 50 72 83 79 76 88 87 77 68 60 57 52 46 40 35 32 29 27 24 22 20 18 16 16 16 15 14 12 11 10 9 8 8 8 8 8 7 6 6 6 7 9 12 20 31 33 40 58 62 59 53 31 19 21 14 6 5 5 6 5 4 5 6 9 12 14 12 12 14 13 11 8 5 4 5 7 11 15 16 18 19 20 20 19
33 54 83 86 80 82 89 86 76 67 61 57 52 46 40 36 33 31 28 25 22 20 18 16 15 15 14 13 12 11 10 9 9 8 9 9 8 7 6 6 6 7 8 11 18 28 36 40 54 64 66 67 47 23 21 18 7 5 5 6 6 5 5 6 10 13 13 12 12 13 14 12 10 7 5 5 6 9 14 16 18 19 20 21 19
58 64 82 85 83 89 91 87 77 69 65 59 53 47 41 37 35 32 29 25 23 20 18 17 15 15 14 13 12 11 10 9 9 9 9 9 9 8 6 6 6 7 8 10 16 26 38 43 51 64 68 70 63 38 24 20 8 4 6 5 7 5 5 7 10 13 11 11 12 13 14 13 11 8 5 5 6 8 12 15 17 18 19 20 20
82 80 72 80 88 90 92 86 76 72 69 62 55 47 40 38 37 33 29 26 22 20 18 17 15 15 13 12 12 11 10 9 9 9 10 10 9 8 7 6 6 8 8 9 15 25 38 45 49 60 67 68 72 61 41 28 12 4 6 5 6 6 5 7 11 12 11 12 13 14 15 14 11 9 7 5 5 6 10 13 15 17 18 19 19
81 93 74 77 84 84 88 81 73 75 71 63 55 47 43 41 37 33 29 26 22 19 18 17 15 14 13 12 12 11 11 10 9 9 10 10 9 8 7 6 6 8 9 10 13 24 39 46 49 55 62 65 70 74 63 45 25 8 5 6 6 7 6 8 11 12 12 13 14 15 16 15 13 11 9 6 5 5 8 11 14 15 16 18 18
75 101 88 83 84 80 83 77 73 74 68 62 56 50 47 41 37 32 29 25 21 19 17 17 15 14 14 13 13 12 12 10 10 10 10 10 10 9 8 6 6 8 10 12 14 21 36 45 52 56 59 62 64 73 74 63 46 21 5 5 6 6 7 7 12 15 15 15 15 16 16 16 13 11 10 7 5 5 6 9 12 14 15 16 16
74 99 96 94 90 81 79 75 73 72 67 64 59 54 49 42 37 32 28 24 20 19 18 17 16 15 14 14 14 14 15 13 12 11 11 11 11 9 8 6 5 9 11 14 17 21 31 43 54 60 59 60 60 67 74 72 65 43 14 5 5 7 7 8 14 18 18 17 18 17 17 17 15 13 11 8 6 5 5 7 9 12 14 15 15
85 98 96 99 92 81 77 74 72 70 68 67 63 57 51 44 38 32 27 23 21 20 19 19 17 16 15 15 15 15 17 17 18 17 16 15 13 11 9 7 6 9 12 16 21 24 31 42 52 58 59 60 59 61 68 73 74 63 36 12 5 6 7 8 13 18 20 20 20 19 19 19 17 14 12 10 8 6 5 6 8 10 12 13 14
94 97 93 94 84 77 74 73 71 71 72 69 64 58 52 44 37 31 26 23 22 21 21 20 18 18 17 16 16 15 16 17 19 21 22 21 18 15 13 13 11 10 12 16 23 27 32 39 47 52 54 57 58 58 62 69 73 71 58 31 9 5 8 8 10 17 22 22 23 23 22 22 19 17 14 11 9 7 6 6 7 8 11 12 13
90 98 97 88 77 76 75 73 73 75 75 70 65 59 51 43 35 29 26 24 23 22 22 21 20 20 19 17 17 16 16 16 18 19 22 26 26 24 23 23 20 15 13 15 20 28 34 37 40 42 43 47 52 56 58 63 68 71 70 53 23 5 6 9 8 15 20 22 25 26 26 24 21 19 16 13 10 9 7 6 7 8 9 11 12
89 100 100 89 80 80 77 75 77 78 75 70 63 55 47 38 32 28 26 25 23 23 22 22 23 24 23 21 20 20 20 19 19 19 21 25 31 31 30 31 28 22 16 14 14 20 28 31 30 28 27 31 37 46 53 57 61 66 71 68 46 14 4 9 7 11 18 21 26 29 29 28 24 22 19 15 12 10 9 8 7 7 8 9 10
97 101 100 97 84 75 74 76 79 79 73 67 59 49 40 33 30 28 27 25 23 23 24 25 25 27 27 27 26 25 25 23 23 24 25 28 34 35 34 35 33 27 19 14 11 11 16 19 20 19 17 18 23 31 42 52 56 60 65 71 63 29 4 8 9 8 13 19 27 30 29 31 29 26 22 18 14 12 10 9 8 7 7 8 9
99 98 100 102 88 75 77 82 82 78 71 63 53 42 35 32 30 30 27 24 22 23 25 25 24 26 28 31 31 30 30 29 28 28 28 29 33 36 36 35 34 30 22 15 12 11 11 12 13 15 17 16 19 23 32 45 52 56 60 66 70 47 13 5 9 8 10 17 26 30 29 31 32 30 27 23 18 14 12 10 9 8 7 7 8
98 97 100 101 89 83 86 87 82 74 66 55 46 41 36 35 34 33 30 25 23 22 20 19 19 23 27 32 34 35 35 35 36 33 30 29 31 34 36 37 37 32 25 18 15 13 12 12 12 14 17 19 21 24 28 38 47 53 57 61 69 63 31 8 7 9 9 13 20 28 31 30 32 34 31 28 23 18 14 12 11 10 9 8 7
99 98 101 98 89 89 89 83 76 67 58 50 45 40 34 33 34 33 28 24 21 19 17 16 18 23 26 29 31 34 35 37 42 43 41 38 35 37 38 39 39 36 32 27 23 21 19 18 19 19 19 24 28 30 31 37 47 52 56 58 65 71 51 16 6 9 9 10 14 22 31 32 31 34 35 32 28 23 17 14 12 12 10 9 8
98 100 99 96 91 88 84 76 70 62 54 51 45 37 31 30 31 28 24 22 20 18 17 17 20 24 26 25 27 29 33 38 41 44 46 44 41 45 46 44 43 43 42 39 37 36 34 31 29 30 29 29 34 41 41 42 49 53 56 57 59 70 62 31 10 8 9 10 11 15 25 31 30 33 38 37 32 27 22 17 14 13 13 11 10
87 100 100 96 91 86 81 76 68 60 55 49 40 32 30 29 28 25 24 23 22 21 22 23 23 23 23 23 25 28 31 36 37 38 43 46 46 48 50 50 48 48 51 50 49 49 47 46 43 44 42 39 39 49 54 51 53 56 56 56 56 63 62 44 20 7 8 11 10 12 18 26 28 29 35 41 38 33 26 21 17 15 14 13 12
86 92 98 95 88 83 80 74 66 60 53 44 36 32 30 30 29 27 27 27 26 25 25 26 24 22 21 21 24 27 31 35 39 42 47 50 50 49 49 51 52 55 57 55 57 58 58 57 54 52 52 50 46 52 59 58 61 64 60 54 54 57 54 46 33 17 11 12 12 11 12 19 25 25 30 39 43 39 33 27 22 18 15 14 13
95 88 86 87 81 79 77 72 66 58 48 41 37 35 34 34 33 31 30 29 28 27 25 24 23 22 21 21 23 26 30 35 40 45 50 53 55 59 59 59 61 59 55 55 61 62 60 60 56 52 52 54 50 49 54 56 62 70 71 64 58 55 48 42 40 32 22 14 12 13 12 13 18 21 24 33 41 42 39 33 29 25 19 15 14
97 90 79 81 82 83 81 74 66 56 50 45 41 38 36 34 31 29 26 23 22 22 22 22 21 20 19 20 24 29 31 32 35 42 46 50 55 60 61 62 61 55 53 58 63 61 60 60 58 52 47 49 51 48 47 49 57 68 75 78 70 61 53 42 36 40 37 22 12 13 15 13 12 17 20 26 37 43 43 40 36 32 26 19 14
98 92 80 77 84 88 82 74 65 58 54 49 43 40 37 34 30 24 20 16 15 15 16 18 17 16 16 17 25 36 41 40 41 45 48 48 51 56 55 54 54 51 57 65 67 63 58 56 54 52 46 43 47 50 50 49 54 61 69 79 80 73 65 50 36 40 48 39 26 18 17 19 14 12 16 19 28 41 46 45 42 38 32 25 18
93 89 83 76 83 85 76 70 64 60 55 48 44 41 39 33 27 20 15 13 12 12 13 13 13 13 12 12 20 36 46 46 46 49 49 47 53 64 65 60 61 61 65 67 62 55 48 45 43 45 48 45 44 45 48 51 54 56 59 68 76 79 78 67 49 40 43 48 49 36 21 20 19 14 13 13 18 30 41 46 46 42 37 32 25
91 92 92 83 83 79 72 70 65 61 55 49 45 40 37 30 24 18 14 12 10 11 11 11 11 10 10 9 13 25 39 46 49 51 49 46 53 70 76 71 70 66 63 58 52 46 41 38 39 44 53 57 56 50 43 42 45 48 51 54 57 64 72 72 64 51 42 47 58 57 38 21 18 18 15 13 13 18 29 38 43 43 42 39 34
96 100 95 78 74 71 67 69 66 62 55 48 42 35 31 27 22 18 14 11 9 9 10 9 9 9 9 8 10 17 31 44 51 51 48 45 49 63 70 67 64 59 57 54 50 46 42 44 50 55 58 60 64 65 57 44 37 38 40 42 42 45 50 55 60 60 54 52 57 64 59 37 20 17 19 17 14 14 19 26 33 39 43 45 42
89 98 97 78 68 66 62 64 64 59 52 44 36 31 27 23 19 16 14 11 10 9 9 9 9 9 9 9 13 17 26 38 46 46 44 44 45 53 57 54 50 48 49 52 50 47 45 49 53 52 53 55 59 66 70 61 47 39 36 35 32 30 32 35 43 53 60 64 64 65 66 59 40 23 20 22 20 17 17 18 21 28 36 44 47
67 80 90 79 68 63 58 57 56 51 45 38 31 26 21 17 15 14 14 11 10 10 9 9 9 8 9 9 12 17 25 35 42 43 42 40 40 46 48 44 42 41 39 39 39 40 41 42 39 37 42 50 59 66 70 67 59 54 52 46 35 25 22 22 27 37 50 62 68 67 65 66 63 45 26 22 26 24 22 21 18 18 25 34 44
71 79 80 68 61 58 53 52 49 44 39 34 28 21 15 14 13 14 14 13 10 10 10 9 9 8 9 8 9 13 21 28 33 39 43 40 40 47 48 42 39 36 31 26 24 27 30 30 26 24 29 42 60 70 69 65 66 69 67 58 49 39 32 26 23 24 32 45 59 67 68 66 69 68 47 25 23 27 26 25 25 21 19 23 32
89 91 75 53 51 52 49 49 45 40 35 29 23 16 13 13 13 14 13 13 11 10 10 9 9 9 8 9 8 9 13 17 18 25 35 38 42 51 51 44 37 31 26 24 25 27 29 29 27 28 36 49 66 75 72 68 67 68 66 64 62 58 53 47 39 30 23 26 40 55 66 71 70 74 69 42 22 22 25 26 28 29 24 21 21
93 87 72 47 48 50 47 47 40 35 30 24 19 13 12 12 12 13 12 13 11 10 11 9 9 9 9 8 9 9 9 11 12 17 28 35 42 49 50 46 42 37 32 30 32 35 34 34 32 32 35 41 55 69 70 65 60 55 53 58 64 63 62 63 62 56 39 25 30 42 53 65 69 71 76 64 36 19 19 24 28 32 32 28 22
87 82 78 52 52 55 47 43 34 30 25 19 16 12 11 12 11 12 11 11 10 10 11 10 10 9 9 9 9 10 9 9 11 13 19 25 32 38 40 40 40 40 37 33 32 31 30 32 31 26 23 24 36 51 56 55 53 47 41 44 55 61 60 62 67 71 63 45 40 46 52 55 61 66 73 76 60 33 17 17 24 31 35 36 31
82 80 81 55 55 63 57 49 35 27 22 16 14 12 12 12 11 11 10 10 10 11 11 11 11 9 9 9 9 9 9 10 9 9 10 12 16 19 21 24 24 25 26 24 24 21 19 22 22 19 20 25 30 38 44 49 49 45 39 42 53 63 62 60 63 66 68 65 58 56 61 64 65 66 70 77 76 60 35 17 16 27 36 40 39
84 74 73 53 53 65 68 65 49 28 17 15 12 12 14 13 14 12 10 10 10 11 11 11 12 11 10 9 9 9 10 11 10 10 9 9 10 10 11 12 12 13 14 14 14 13 13 13 13 13 19 26 30 32 35 41 49 50 48 47 52 61 65 64 64 60 58 64 67 62 66 77 79 75 75 79 82 77 64 39 15 19 35 42 43
84 68 63 53 52 61 69 75 68 39 14 12 12 12 15 16 20 21 17 14 12 12 12 12 12 12 12 10 9 9 10 12 12 12 11 9 9 8 9 9 9 9 9 9 9 9 9 9 9 9 13 19 23 26 27 32 47 56 54 49 48 53 60 67 75 73 64 63 67 65 63 72 82 84 83 86 88 84 83 68 30 16 33 45 47
72 61 57 54 54 60 68 75 76 50 18 11 12 12 15 17 22 27 28 25 20 16 14 14 14 13 13 13 11 10 10 11 12 13 13 12 10 9 9 9 9 9 8 8 8 8 8 8 9 9 10 12 14 16 20 27 39 46 45 42 45 50 53 62 78 86 84 79 77 75 69 68 77 87 89 88 89 85 89 85 46 19 31 46 51
61 62 61 58 54 57 66 70 69 54 31 16 11 13 15 18 22 26 32 35 31 26 21 19 17 16 16 15 14 12 11 12 13 14 14 14 13 11 11 11 10 10 9 9 8 8 9 8 9 9 9 10 10 11 15 23 31 33 33 35 39 45 47 52 67 81 89 90 90 89 84 80 80 85 90 87 84 81 88 89 54 24 31 47 54
68 69 66 57 47 48 62 68 61 50 37 20 12 15 19 22 27 30 35 38 35 30 26 23 21 19 19 18 16 15 13 14 14 15 15 15 15 14 13 13 13 12 12 11 10 9 9 9 10 10 10 10 10 10 11 17 24 25 26 30 33 37 41 45 51 62 71 77 82 86 86 87 88 87 87 85 82 77 82 82 55 30 32 46 56
74 73 67 58 46 43 54 64 58 46 36 24 15 16 20 25 34 41 44 43 39 34 29 25 22 20 19 19 19 17 16 16 16 16 16 15 15 15 14 14 14 14 14 13 12 11 10 10 10 10 10 10 10 10 9 10 13 15 19 26 29 29 33 37 40 45 53 62 71 78 80 83 89 90 89 87 84 78 75 71 53 34 33 43 53
71 68 61 54 47 42 46 56 55 45 38 29 19 16 18 25 36 46 50 50 46 38 32 27 23 21 19 19 19 18 18 17 17 17 16 16 15 15 14 14 14 14 14 14 14 13 12 11 11 11 11 10 10 9 9 8 7 8 13 21 23 23 26 33 40 42 47 55 60 65 70 74 80 85 90 94 93 87 77 67 53 39 34 39 47
68 56 45 42 42 38 40 51 53 49 47 37 27 22 19 25 38 49 52 53 50 43 36 29 23 20 18 18 18 18 18 18 17 17 16 16 15 14 14 13 13 13 13 13 14 13 13 12 11 11 10 10 9 8 7 7 6 6 6 10 13 14 18 28 38 41 42 45 43 45 56 67 74 79 87 96 98 97 89 78 65 53 44 41 45
47 35 33 39 43 39 40 50 54 53 51 43 34 28 24 26 36 46 50 52 51 46 40 31 24 20 18 18 17 17 18 17 17 16 16 16 15 14 13 12 11 11 11 11 12 12 12 12 11 10 10 8 8 7 6 6 5 5 5 6 8 7 8 16 26 30 33 35 32 36 58 74 76 76 80 85 89 92 94 91 84 76 67 57 52
25 28 37 45 47 45 45 49 52 54 54 49 41 33 29 29 32 39 45 50 52 49 43 34 26 21 18 18 17 17 17 16 16 16 15 15 15 14 12 11 10 9 9 9 9 10 10 10 9 9 9 7 7 6 5 6 4 4 4 4 5 5 5 7 12 15 19 25 23 29 59 74 67 66 68 74 81 82 88 94 93 92 87 79 72
30 35 42 43 41 40 40 44 49 54 54 53 49 43 38 33 29 33 39 47 54 52 48 40 29 23 20 18 17 16 15 15 15 14 13 13 12 12 11 10 10 8 8 7 7 7 7 7 7 7 7 6 6 5 5 5 4 4 4 4 4 4 4 4 6 7 9 16 15 22 51 65 58 60 65 76 87 84 80 83 87 93 95 95 92
44 42 39 37 37 38 39 45 50 49 45 45 45 46 48 40 30 29 34 43 53 55 54 47 35 27 22 20 18 16 15 14 13 12 11 10 9 9 9 8 8 7 6 6 5 5 5 5 5 5 5 4 4 4 4 4 3 4 4 4 4 3 4 3 3 4 4 8 9 14 37 55 57 60 57 59 70 76 74 66 63 72 83 93 96
49 46 41 38 40 42 41 43 44 41 39 40 37 42 54 50 35 31 31 35 45 51 55 52 40 30 24 22 20 17 15 13 12 12 10 10 9 8 7 7 6 6 5 5 5 5 4 4 4 4 4 4 4 3 3 3 3 4 3 3 4 3 4 4 3 4 3 4 5 6 17 33 40 40 32 23 25 38 47 42 38 44 53 68 86
Wind_Speed
29 29 30 31 31 31 31 30 29 29 28 27 26 26 26 25 24 23 21 20 19 18 18 18 19 19 20 20 21 21 21 22 22 22 21 21 21 20 19 17 16 15 14 12 12 12 12 11 12 12 12 12 13 13 13 13 12 11 12 13 14 15 15 15 14 12 11 10 10 9 8 7 8 8 9 10 9 8 7 7 8 8 8 8 8
31 29 30 32 32 32 31 31 31 30 28 26 26 27 26 24 23 21 20 19 19 18 18 18 19 19 20 20 21 21 21 21 21 21 21 21 21 20 19 17 16 15 14 12 11 11 11 11 12 12 13 13 13 13 14 13 11 11 11 13 14 15 15 15 14 13 12 11 10 9 8 8 8 8 9 11 10 8 7 7 8 8 8 8 8
34 32 32 32 33 33 32 32 31 30 27 26 26 26 24 23 21 20 19 19 19 19 19 19 19 20 20 20 21 21 21 21 21 21 21 21 21 20 19 18 17 15 14 12 11 11 11 11 11 12 13 13 14 14 14 13 11 11 11 13 14 15 16 16 15 14 12 11 10 10 9 9 8 9 10 11 11 9 8 8 8 8 8 8 8
36 35 34 34 34 34 33 32 31 29 27 26 26 25 24 22 20 19 19 19 19 19 19 19 20 20 21 21 21 22 21 21 21 21 21 21 21 20 19 18 17 16 14 12 11 11 11 11 11 12 13 14 14 14 14 13 11 11 12 13 14 15 16 16 15 14 13 12 11 10 9 9 9 9 10 12 12 10 9 8 8 8 8 8 8
39 37 37 35 34 33 31 29 29 28 27 26 25 24 23 22 20 19 19 18 19 19 20 20 21 21 21 21 22 22 21 21 21 21 21 20 20 20 19 18 17 16 14 12 11 11 11 12 12 12 13 14 14 14 14 13 12 12 12 13 14 15 16 16 16 15 14 13 12 11 10 9 9 10 11 12 12 10 9 9 8 8 8 8 8
40 39 36 35 34 32 29 27 27 27 26 25 24 24 23 22 20 19 19 18 19 20 21 21 21 21 21 22 22 21 21 21 21 21 21 21 20 20 19 18 17 16 14 12 11 11 12 12 12 12 13 13 14 14 14 14 13 12 12 12 13 15 16 16 16 15 15 14 13 11 10 9 9 10 11 12 12 11 10 9 9 9 9 9 8
41 39 36 34 34 31 28 26 27 26 25 25 24 24 23 22 21 20 19 19 20 21 21 21 21 21 21 22 22 21 21 21 21 21 21 21 20 19 19 18 17 16 15 13 11 11 12 13 12 12 13 13 13 14 14 14 13 12 12 12 13 14 15 16 16 15 15 15 14 12 11 10 9 10 11 12 13 12 11 10 10 9 9 9 9
42 40 37 35 34 31 28 27 26 26 25 25 24 24 23 22 21 20 20 20 20 21 22 22 21 21 21 21 22 22 21 21 21 22 22 21 20 19 18 17 16 16 15 13 12 12 12 13 13 12 12 12 12 13 14 14 14 13 12 12 13 14 15 16 16 16 16 16 15 13 12 10 10 10 11 12 13 13 12 11 10 10 10 10 10
45 44 39 36 35 33 30 28 26 25 25 25 25 24 23 22 21 21 20 21 21 22 22 21 21 21 21 21 21 22 21 21 21 22 22 21 20 19 18 17 16 16 15 13 12 12 12 13 14 14 13 12 11 12 13 14 14 14 13 12 12 13 15 16 17 17 17 18 16 15 13 11 10 10 11 12 13 13 13 12 11 10 10 10 10
42 43 41 38 36 34 32 29 26 26 26 25 25 24 23 22 21 21 21 22 22 22 22 21 21 21 21 21 21 21 21 21 22 22 22 21 21 20 18 17 16 15 14 13 13 13 12 13 15 15 14 14 12 12 13 13 14 14 13 12 11 13 14 16 17 18 19 19 17 16 13 11 11 10 11 11 12 13 13 13 12 11 11 10 10
30 34 39 41 38 36 34 30 27 26 26 25 24 24 22 22 21 21 22 22 22 22 22 21 21 21 21 21 22 22 21 21 22 22 22 21 21 20 19 17 16 15 14 13 13 13 13 14 15 16 16 15 13 12 12 13 14 14 13 12 12 12 14 16 18 19 20 19 18 16 14 12 12 11 11 11 12 13 14 13 12 12 11 10 10
29 33 36 40 41 38 36 32 28 26 25 24 24 23 22 21 21 22 22 22 22 22 21 21 21 21 22 22 22 21 22 22 22 22 22 21 20 20 19 17 15 15 14 13 14 14 14 14 15 17 17 17 16 13 12 13 13 13 14 13 12 12 14 16 18 20 20 19 18 17 15 13 13 12 11 11 12 13 14 13 13 12 11 10 10
33 37 36 39 42 38 36 32 27 25 24 23 23 22 22 22 22 22 23 22 22 22 21 21 21 21 22 22 21 21 22 22 22 22 21 20 19 19 18 17 16 15 14 14 14 15 15 15 15 16 17 18 17 16 14 13 13 13 14 14 13 12 13 16 18 20 20 19 18 18 17 15 14 13 12 12 12 13 14 14 13 12 12 11 10
31 36 40 41 40 37 35 30 25 24 22 22 22 22 22 22 22 22 23 22 22 22 21 21 21 22 22 22 21 21 21 22 22 21 20 20 19 18 18 17 16 15 15 15 15 15 16 16 16 16 17 18 18 17 16 15 14 14 15 15 14 13 12 15 19 20 20 20 19 19 18 17 16 15 13 13 13 13 14 14 14 13 13 12 11
27 31 37 37 34 33 31 26 23 22 21 21 22 22 22 22 23 22 22 22 21 21 21 21 21 21 22 21 21 21 22 22 22 21 20 19 19 18 17 17 16 15 15 16 16 16 17 17 17 17 17 18 18 18 17 17 16 15 15 15 15 14 12 16 20 21 21 21 21 21 19 18 17 16 14 14 14 14 14 14 14 14 13 13 12
25 25 29 27 26 28 26 23 21 20 21 21 22 22 22 22 22 22 21 21 21 21 20 21 21 22 22 21 22 22 22 22 22 21 21 20 19 18 18 17 16 16 16 17 17 17 18 18 18 18 18 19 19 18 18 18 18 17 16 15 16 15 14 16 20 22 22 22 22 22 20 18 17 16 15 14 14 14 14 14 14 14 14 13 12
26 23 23 18 17 23 22 20 19 19 20 21 21 22 22 23 22 21 21 20 21 20 21 21 22 22 22 22 22 23 22 22 22 21 21 20 19 19 18 18 17 17 18 18 18 18 18 18 18 18 19 20 20 19 19 19 19 19 18 16 16 16 16 17 20 22 23 23 24 23 20 19 19 18 17 16 15 15 15 15 14 15 14 14 13
25 26 26 18 14 18 19 18 18 19 20 20 21 22 22 22 21 21 20 20 20 21 21 22 22 22 23 23 23 23 23 22 22 21 21 20 20 19 19 18 18 18 18 19 19 19 19 19 19 19 20 20 21 21 21 21 21 21 20 19 17 17 18 18 19 22 24 25 25 24 22 20 20 19 18 17 17 16 16 15 14 14 14 14 13
25 30 33 24 14 14 16 16 17 18 19 20 21 22 22 21 20 20 20 21 21 21 22 22 23 23 23 24 24 24 23 22 21 20 20 19 19 19 19 19 19 18 19 19 20 19 20 20 20 20 20 21 22 22 23 22 22 22 22 21 19 17 19 19 19 21 25 26 26 25 23 22 21 20 20 19 18 17 16 15 14 14 14 14 14
27 31 34 27 17 13 14 15 17 18 19 21 21 21 21 20 19 20 21 22 22 22 22 22 23 24 24 24 24 24 23 21 20 19 19 18 19 19 19 19 19 19 19 20 20 20 20 20 20 20 20 21 21 23 23 23 24 23 23 23 21 19 19 20 19 20 24 27 27 26 25 23 22 22 21 20 19 18 17 16 15 14 14 15 14
29 31 34 32 20 12 13 15 17 18 19 20 20 19 19 19 19 21 22 22 22 23 23 24 24 25 24 24 23 23 22 21 20 19 19 19 19 20 20 20 20 20 20 20 20 20 20 19 19 20 20 21 22 22 23 24 24 25 25 25 23 21 20 20 20 20 23 27 28 28 27 25 24 23 23 22 21 19 18 17 16 15 15 15 15
30 32 33 27 16 13 15 16 17 17 17 18 18 17 18 18 20 21 22 23 23 23 24 25 25 25 25 24 23 23 22 21 20 19 19 19 19 20 21 21 21 21 21 20 20 20 19 18 18 19 20 20 21 22 23 24 25 25 26 25 24 22 21 20 21 22 23 26 29 29 29 28 26 25 24 23 23 21 20 19 18 17 16 16 16
30 32 28 19 14 16 17 17 17 17 17 17 17 17 17 18 20 21 22 23 23 23 24 24 24 25 25 24 24 23 22 21 20 19 18 19 20 21 21 22 22 22 21 21 20 19 18 17 18 18 19 19 20 22 23 24 25 25 26 25 24 23 22 21 22 23 22 24 28 30 30 30 29 27 26 25 24 23 22 21 20 19 18 17 16
33 32 28 21 19 19 18 18 18 17 17 17 17 16 17 18 19 20 21 22 22 22 23 24 24 24 25 24 23 22 22 21 20 19 18 19 20 21 22 22 22 22 21 20 19 17 16 16 17 17 18 18 20 21 23 24 25 25 25 25 24 23 23 23 23 23 22 23 25 29 31 32 31 29 28 26 26 25 24 23 22 21 19 18 17
34 33 29 25 22 20 19 18 16 15 15 15 15 15 16 17 18 19 20 22 22 22 22 23 24 24 24 23 22 21 21 20 20 19 19 19 20 22 23 23 22 20 20 19 17 16 17 17 17 18 17 18 19 21 22 24 25 25 25 24 24 23 23 24 24 24 24 24 23 26 30 32 32 31 30 28 27 26 26 25 24 22 20 19 18
25 27 27 26 23 19 17 15 13 13 12 13 14 14 15 16 17 18 19 21 22 22 22 23 23 24 23 22 21 20 20 20 20 20 19 20 20 20 21 21 20 20 20 19 17 18 19 19 19 18 17 17 19 21 22 24 25 25 24 24 24 23 23 24 24 25 26 26 24 24 26 30 32 33 32 30 29 28 27 26 25 24 22 21 19
21 21 23 25 24 19 15 12 11 11 11 12 12 13 14 15 16 17 18 19 20 21 22 22 23 23 22 21 20 19 19 19 20 20 21 21 20 18 17 18 19 20 19 18 18 19 19 19 19 18 17 17 19 21 23 24 25 25 24 24 25 23 22 23 24 25 26 27 27 25 25 27 30 33 33 32 31 30 29 28 27 26 24 23 21
25 23 25 26 23 20 15 11 10 10 11 11 12 13 14 15 16 17 18 18 19 20 20 21 21 21 21 20 19 18 18 18 19 20 20 21 20 19 18 18 19 20 19 18 18 18 18 18 17 18 18 19 20 21 22 24 25 25 23 23 24 23 22 23 24 25 26 27 29 29 27 26 28 31 33 33 33 32 31 30 29 28 27 25 24
29 28 26 21 18 17 12 9 9 9 10 12 12 13 14 15 15 16 17 17 18 18 18 19 19 19 19 19 18 17 16 16 17 18 18 19 19 18 17 18 18 19 18 17 17 18 17 16 16 17 19 20 20 21 22 23 24 24 22 23 24 22 21 22 24 25 26 27 29 31 31 28 27 29 30 32 34 34 33 32 31 30 29 28 27
29 32 25 17 15 12 7 5 7 8 10 11 12 13 14 15 15 15 16 16 16 16 16 16 16 17 16 16 16 16 16 16 16 16 17 18 18 17 16 17 17 17 17 16 16 17 17 16 15 16 16 17 19 21 23 24 24 23 22 22 23 22 21 22 23 24 26 27 27 30 33 32 30 29 29 31 33 35 35 34 33 32 32 31 29
26 31 24 18 16 10 5 5 6 8 10 11 13 13 14 15 15 15 15 15 15 15 14 14 14 14 14 15 15 15 15 14 14 14 16 18 18 17 16 16 16 16 16 16 17 17 17 15 14 14 15 16 17 19 21 23 24 24 23 23 23 23 21 21 21 22 24 26 26 27 31 34 33 31 30 30 32 34 36 35 35 35 35 34 32
23 30 30 26 20 10 6 6 7 9 11 12 14 14 15 15 15 15 14 14 13 13 13 13 13 13 12 12 13 13 13 13 12 14 17 18 18 17 16 16 15 15 15 15 16 16 16 15 15 14 14 15 17 19 19 20 22 24 24 24 24 23 22 21 21 22 24 25 26 26 27 31 35 35 32 31 32 33 35 36 36 36 36 36 35
22 29 33 30 21 11 7 8 9 11 12 13 14 15 15 15 15 15 14 13 12 12 12 12 12 11 11 11 12 12 11 11 11 13 16 16 16 16 16 16 15 13 13 14 15 15 15 15 15 15 15 15 17 19 19 18 19 21 22 23 24 23 22 21 22 23 25 26 27 26 26 28 32 36 36 34 33 33 34 35 36 37 37 37 37
21 24 23 19 15 10 8 9 10 11 12 13 14 15 15 15 14 14 13 12 12 12 12 12 12 11 11 10 11 11 10 9 10 12 14 14 14 15 16 16 14 12 12 14 15 15 15 15 16 16 16 15 15 16 17 17 18 18 19 20 21 22 21 22 23 24 25 27 27 27 27 27 28 32 37 37 35 33 34 34 35 36 37 37 37
21 20 11 6 7 7 8 9 11 12 13 14 15 15 15 14 14 13 13 12 12 12 12 12 12 12 11 11 10 10 10 10 10 10 11 12 12 13 14 14 13 12 12 13 14 14 14 15 15 16 16 14 13 15 16 16 17 18 19 19 19 19 20 22 24 25 26 27 27 27 28 27 28 29 34 38 38 35 34 34 35 36 37 37 38
20 16 5 1 2 4 7 9 11 12 14 14 14 15 15 14 14 13 13 12 12 12 12 12 12 11 11 11 10 10 10 9 9 9 9 10 10 11 12 13 13 12 13 13 12 12 13 14 15 15 15 13 13 15 17 17 17 17 18 19 18 18 19 21 23 24 25 26 27 28 29 28 29 29 31 35 39 38 36 35 35 35 36 37 38
19 14 2 5 2 4 8 9 11 13 14 15 14 15 15 15 15 14 13 13 12 11 11 11 11 11 10 10 10 11 11 10 9 9 9 10 10 10 11 11 11 11 12 13 12 12 12 13 14 15 15 14 13 15 17 18 17 17 17 18 19 19 19 20 23 23 23 25 27 29 30 29 29 30 31 32 36 39 39 38 36 36 36 36 38
18 12 9 10 5 6 9 10 12 14 14 15 14 15 15 15 16 16 15 13 12 11 10 10 11 11 10 10 10 11 12 11 10 10 10 11 11 11 11 11 11 12 13 13 13 12 12 13 13 14 14 14 14 14 14 16 16 16 16 17 18 20 21 22 23 23 22 25 28 29 30 29 29 30 32 33 34 38 40 40 38 37 36 36 36
17 16 18 14 9 9 11 12 13 15 15 14 14 15 14 14 15 16 16 14 13 12 11 11 10 10 10 10 10 10 11 11 10 10 10 11 12 12 12 13 13 13 14 14 14 14 14 13 14 14 14 14 14 13 13 14 15 16 16 16 17 19 21 23 24 24 22 24 27 29 29 29 29 30 33 34 35 37 40 41 40 38 36 35 35
17 20 20 16 12 11 14 15 16 16 16 14 14 15 14 13 13 14 14 14 13 13 12 12 10 10 10 10 10 10 10 10 10 10 11 12 13 13 14 14 14 15 15 15 15 15 15 15 15 14 14 14 14 14 14 13 14 15 16 17 18 19 21 22 23 23 22 22 24 27 28 29 29 31 33 34 35 37 39 40 40 39 37 35 35
21 21 19 17 14 14 16 17 16 16 17 16 15 15 14 13 13 12 13 13 13 12 13 13 12 11 10 10 11 11 10 10 10 10 11 13 13 14 14 15 15 16 16 16 16 16 16 16 16 15 15 16 16 15 15 14 14 15 16 17 18 19 20 20 20 19 19 19 21 24 27 29 30 31 32 33 33 35 37 39 40 40 37 35 35
20 19 18 16 15 15 15 14 14 15 19 18 16 15 14 13 14 13 13 13 12 12 12 13 13 13 11 11 11 11 11 11 11 11 11 12 13 14 14 15 15 16 16 16 17 17 17 17 17 17 17 17 17 16 16 16 16 16 16 17 18 19 19 18 18 17 16 17 18 19 21 25 28 30 31 31 31 33 35 37 40 40 38 36 36
16 17 17 15 15 16 14 13 13 16 20 19 17 16 14 13 13 13 13 13 13 12 12 13 13 13 13 12 11 12 12 12 12 12 12 12 13 14 14 14 15 15 16 16 17 17 18 18 18 18 18 18 18 18 17 17 17 17 18 18 19 20 19 18 18 17 17 18 19 18 18 19 22 25 29 30 31 31 33 36 39 39 39 38 37
15 17 17 15 15 16 17 16 15 17 20 20 18 16 13 12 11 12 13 14 14 13 12 13 13 13 13 13 13 12 13 13 13 13 13 12 12 13 13 14 14 14 15 15 16 17 17 18 18 18 19 19 19 19 18 19 19 18 18 19 19 20 19 18 19 18 18 19 20 19 19 19 17 17 22 27 30 31 32 35 39 40 40 40 38
16 17 17 16 16 17 19 19 16 17 20 21 20 17 14 11 9 10 12 13 14 14 12 12 12 13 13 13 14 13 13 13 13 14 14 13 13 13 13 13 13 13 13 14 15 15 16 17 18 18 19 19 20 19 19 20 20 19 19 19 19 20 20 19 19 19 18 18 18 18 18 19 17 15 15 20 26 31 32 34 39 41 41 41 40
17 17 17 17 17 18 20 20 18 18 21 22 22 20 16 11 9 10 11 12 13 13 13 12 11 11 12 13 13 14 14 14 14 14 14 14 14 13 13 13 13 13 13 13 14 15 16 17 18 18 19 20 20 20 20 20 20 20 19 19 20 20 20 19 19 19 19 19 18 18 18 18 18 16 15 15 18 25 31 34 37 41 43 43 43
17 17 17 17 17 17 19 20 20 19 20 22 22 22 18 13 10 10 10 11 12 13 13 12 12 11 11 12 13 13 13 13 13 13 14 14 14 14 14 13 13 13 13 14 14 15 16 17 18 19 20 21 21 21 21 20 20 20 20 20 20 20 20 20 20 19 20 20 19 18 17 16 16 16 17 17 16 19 25 30 34 38 41 43 44
17 17 17 16 16 17 18 20 20 20 21 22 22 22 20 16 13 11 11 11 11 13 13 13 13 13 13 13 13 13 13 13 13 13 13 14 14 14 14 14 14 14 14 14 15 15 16 17 19 20 21 21 21 21 21 20 21 20 20 20 20 20 20 20 20 21 21 21 20 19 17 16 15 16 16 17 17 16 17 21 27 32 36 39 41
15 16 16 17 17 18 19 20 20 21 22 24 24 24 24 22 17 14 12 11 11 12 13 14 15 15 15 15 15 14 13 13 12 12 13 13 13 14 14 14 14 14 14 14 15 15 16 17 18 20 21 21 21 21 21 20 20 20 20 20 19 19 20 20 21 21 22 23 22 21 20 18 17 17 17 17 17 17 15 16 19 22 25 31 34
13 15 16 18 19 19 20 20 20 22 23 25 25 27 28 27 23 18 14 13 12 12 13 15 16 16 16 17 16 15 14 13 12 11 12 12 12 12 13 14 14 14 14 15 15 15 16 16 17 19 20 21 21 21 21 20 20 20 20 19 19 19 19 20 21 22 23 24 23 23 22 21 20 19 19 20 20 19 18 18 18 18 19 24 28
13 15 16 17 18 20 21 21 22 23 25 26 27 29 31 29 26 21 16 14 13 13 14 16 16 17 17 17 17 16 14 13 12 11 11 11 11 11 12 13 14 14 14 15 15 16 16 16 17 18 19 19 20 20 20 20 19 19 19 19 18 18 19 20 20 21 22 23 24 24 24 25 24 24 24 24 24 23 24 23 23 22 20 21 23
Wind_Direction
264 264 265 267 268 271 273 274 275 275 276 276 275 275 274 275 276 277 279 281 284 287 290 293 296 298 300 301 302 302 302 302 303 304 304 304 304 304 303 302 299 297 293 285 279 273 264 257 256 256 258 255 252 256 251 243 241 240 233 226 224 221 218 213 207 205 207 211 212 212 215 216 214 208 200 197 193 184 171 158 145 139 141 146 149
267 265 264 265 267 269 271 272 273 274 275 274 274 273 273 273 275 276 279 282 285 288 292 294 297 298 300 301 301 301 301 301 301 301 302 302 302 303 302 300 298 296 293 286 277 271 262 255 252 253 256 255 251 252 251 246 243 240 233 226 224 221 218 214 209 206 207 210 212 214 219 216 212 211 205 199 195 187 175 162 150 143 143 148 151
270 269 268 266 266 268 269 271 272 272 272 273 272 271 271 273 274 276 279 283 286 290 293 295 296 297 299 300 301 300 300 300 299 299 299 300 300 301 300 299 297 295 293 286 276 266 259 253 252 253 256 254 250 250 252 248 242 240 233 226 224 222 219 215 211 208 207 209 211 215 222 221 214 211 207 201 197 189 178 167 158 149 146 149 152
271 270 269 267 265 266 268 270 271 270 271 272 271 270 271 272 274 277 280 284 288 291 294 295 296 296 298 299 299 299 299 298 297 297 297 298 298 299 298 297 296 295 293 287 276 264 256 252 250 252 254 253 250 249 250 248 242 240 234 227 224 222 219 215 213 211 209 210 211 214 221 224 220 214 208 203 199 192 182 172 166 158 152 152 155
271 268 266 266 263 264 267 270 272 270 271 270 269 269 270 271 274 276 281 285 289 292 294 295 295 296 297 297 298 298 297 296 295 295 295 296 296 296 296 295 295 294 292 288 277 266 257 250 248 249 252 253 250 248 249 247 242 240 236 230 226 222 219 215 213 213 212 212 212 214 221 226 225 220 211 206 201 195 188 178 172 168 161 157 158
269 266 265 264 263 264 267 271 273 272 270 268 267 267 268 271 274 277 282 286 290 292 293 294 295 296 297 297 297 297 296 294 293 293 294 294 294 293 294 293 293 293 291 287 277 265 256 248 246 248 251 253 251 249 250 248 244 241 238 233 228 222 218 214 214 215 215 214 212 213 220 225 229 225 217 210 204 198 194 186 178 175 171 166 165
267 266 264 263 264 264 265 270 273 272 269 267 267 266 268 271 273 277 282 286 290 291 293 294 295 296 296 297 296 296 295 293 292 291 292 292 292 291 292 291 291 291 289 285 274 262 254 246 243 246 250 254 254 253 253 251 247 244 241 236 231 225 219 214 214 216 218 216 212 213 217 222 228 229 222 214 207 202 198 194 187 182 180 176 173
264 264 263 261 263 263 262 269 271 269 266 265 265 265 268 270 273 277 282 286 289 291 293 294 296 297 296 297 296 295 294 292 291 290 290 289 290 289 289 290 289 289 286 281 272 261 254 246 240 242 247 252 256 256 255 254 249 245 241 238 236 231 221 215 214 217 220 218 213 213 216 221 226 230 226 219 213 206 201 201 197 190 187 184 181
264 257 256 257 260 260 260 265 266 264 262 262 262 264 267 268 272 277 283 286 289 291 292 294 295 296 297 296 295 294 293 291 289 288 288 288 288 287 287 287 287 287 284 278 271 263 255 246 240 238 242 246 252 255 255 256 252 246 243 241 239 235 225 217 215 216 219 219 215 214 217 221 225 228 227 223 219 211 205 204 204 200 195 192 189
269 248 245 251 253 255 256 260 260 260 258 259 261 262 265 267 273 279 284 287 289 291 292 294 294 295 295 294 293 293 292 290 289 287 287 287 287 287 287 287 286 285 282 275 269 263 253 244 240 236 237 241 244 250 252 256 254 248 245 244 239 235 228 220 216 217 219 219 216 215 217 221 224 228 228 226 224 217 211 208 208 208 204 199 195
266 237 237 244 246 249 250 253 254 254 255 257 259 261 265 268 274 280 284 287 289 291 292 293 293 293 292 291 291 291 291 289 288 287 286 286 286 287 287 286 284 282 279 273 267 261 251 243 240 235 235 238 238 242 248 254 255 251 246 244 241 235 230 222 219 221 221 220 218 217 219 222 223 227 229 230 229 223 218 214 212 214 212 208 203
258 237 237 239 240 245 245 248 250 250 252 254 258 260 265 269 275 279 283 287 289 290 291 292 291 290 290 289 289 289 288 287 286 285 284 284 285 286 286 285 282 276 274 270 264 257 248 242 239 236 235 237 236 236 241 248 253 251 245 241 241 236 230 224 222 224 224 222 221 220 221 223 223 224 228 231 231 228 223 219 217 217 218 216 212
262 245 240 239 237 240 243 246 247 246 249 252 256 260 265 270 274 279 283 286 288 289 289 289 289 289 289 288 287 287 285 285 284 283 283 283 284 284 284 283 278 271 268 265 261 255 246 240 238 236 236 237 236 234 235 241 247 249 245 240 238 235 230 225 224 226 227 225 223 223 221 223 224 222 224 228 229 230 226 223 221 220 221 220 219
267 250 241 239 235 237 243 245 245 245 248 251 256 261 265 270 275 280 284 286 287 288 288 288 288 288 288 286 285 284 283 282 282 282 282 282 282 281 280 279 274 266 261 258 256 252 245 239 235 235 236 237 237 235 232 235 240 245 244 240 235 232 228 224 223 225 228 227 226 225 223 223 226 225 223 226 228 229 227 224 223 222 222 222 222
264 252 241 234 232 236 243 244 243 243 246 250 256 262 266 272 277 281 283 284 285 285 286 287 288 287 286 284 283 282 281 280 280 280 280 280 278 276 275 275 271 261 253 250 249 246 242 237 233 233 236 237 238 235 232 232 235 240 242 241 236 229 224 221 221 223 227 228 228 228 227 226 228 229 227 227 229 230 229 226 225 224 223 223 223
257 253 242 238 239 240 243 241 239 240 244 251 258 264 269 275 278 281 282 282 282 283 285 285 285 284 283 282 282 280 279 279 279 279 279 277 275 272 270 270 266 256 246 243 243 242 239 236 234 234 236 237 238 236 233 231 232 236 239 240 237 229 220 220 220 221 224 227 230 230 229 230 231 234 232 230 232 232 232 230 228 227 225 224 224
256 248 239 255 259 243 241 238 237 241 246 254 260 266 271 275 278 280 280 279 280 281 282 283 282 282 282 282 281 280 279 279 279 279 278 276 274 270 267 265 261 253 243 239 238 238 236 236 236 235 236 237 238 237 234 231 231 233 235 237 237 230 220 219 220 218 222 226 229 231 230 231 233 235 235 234 234 234 233 233 231 229 228 226 225
254 239 236 264 273 245 242 238 239 243 249 257 261 268 272 275 278 278 278 278 279 281 281 281 282 282 282 282 281 281 281 280 279 279 278 276 274 270 266 262 257 251 244 238 235 234 233 235 237 237 238 238 238 238 235 232 231 231 231 232 234 232 222 220 221 217 219 224 227 230 229 231 235 236 237 237 237 238 237 235 234 233 231 230 228
251 238 237 257 274 248 240 236 240 245 252 259 264 269 272 275 277 277 278 279 281 282 282 282 282 282 282 282 282 282 282 282 280 279 278 277 274 270 266 261 256 250 244 240 236 234 233 235 237 239 240 239 239 239 237 234 232 230 229 229 229 229 225 222 222 219 218 222 226 229 228 228 234 237 238 239 240 242 242 239 237 236 235 234 232
254 246 242 257 275 248 232 234 240 248 255 261 265 268 271 275 276 277 278 280 282 281 282 283 282 282 281 281 281 282 283 282 281 279 278 276 272 269 266 263 258 253 246 242 239 238 237 238 239 241 241 241 240 239 238 236 234 232 229 228 225 226 226 223 224 222 219 221 223 227 228 226 229 235 238 239 241 243 245 244 241 239 236 236 235
259 255 252 263 274 246 231 237 243 250 256 260 263 266 271 275 276 277 279 281 282 282 283 283 283 282 281 281 282 283 283 282 281 279 276 274 271 268 266 263 260 255 250 245 242 241 241 241 243 244 244 242 240 238 239 238 237 234 232 230 226 224 226 223 223 224 221 221 222 225 228 227 226 231 235 238 239 241 244 245 243 240 238 236 235
262 261 259 264 263 239 235 239 245 252 255 259 262 268 273 275 276 278 281 283 283 283 284 284 284 283 282 283 283 284 283 282 280 278 275 272 269 266 264 261 259 256 253 250 248 246 245 245 246 246 246 244 242 239 239 238 237 236 234 233 229 224 225 223 221 224 224 222 222 223 226 227 225 227 232 235 237 239 240 242 242 240 238 237 236
262 261 259 253 238 230 233 237 244 250 253 259 264 270 274 274 277 279 283 284 284 284 283 283 284 283 284 285 285 284 282 280 278 277 274 269 265 264 262 259 258 257 255 254 253 252 251 250 249 248 246 245 242 239 239 238 237 237 236 235 232 227 226 225 222 223 225 226 225 224 225 227 226 224 228 233 236 238 239 240 240 239 238 237 237
256 248 244 234 223 221 226 234 240 246 253 260 266 271 273 275 277 280 282 283 283 282 282 283 283 284 285 285 285 284 281 279 277 275 272 266 262 261 260 258 257 257 257 257 257 256 254 251 248 245 243 242 241 238 238 239 238 238 238 237 234 230 228 228 226 223 223 228 229 227 226 228 228 226 225 229 233 236 239 240 240 240 239 238 238
247 227 219 210 206 211 219 228 236 245 255 262 269 272 274 277 278 280 281 281 282 282 283 283 283 284 284 285 285 284 281 277 275 272 268 262 258 258 257 257 256 256 256 256 255 252 248 245 241 238 236 236 237 237 237 238 240 240 240 239 236 231 229 230 229 225 223 225 230 231 230 230 231 230 227 227 231 235 237 240 241 241 241 241 240
239 215 203 194 191 198 209 222 234 246 257 263 268 273 276 278 278 279 280 281 282 282 282 281 281 282 284 285 286 284 279 274 271 268 264 257 252 252 255 255 255 255 255 253 250 248 246 243 238 235 234 234 233 233 234 236 239 242 242 242 239 232 229 231 231 228 225 224 227 232 233 233 233 234 231 227 228 232 235 238 240 241 241 241 241
235 217 201 187 181 186 200 215 232 245 254 261 267 272 274 276 278 279 280 281 282 282 281 281 282 283 284 285 284 281 276 271 268 265 261 255 248 247 250 251 252 252 252 251 250 249 248 244 239 236 237 236 234 232 233 234 237 241 243 243 240 233 229 230 231 232 231 227 226 229 232 234 234 235 235 232 229 230 232 235 238 240 239 239 240
226 213 200 190 183 187 195 206 226 242 253 261 267 271 274 277 279 281 282 283 284 284 284 284 284 284 285 285 282 278 273 269 266 262 257 255 253 247 245 245 246 247 247 248 252 253 250 246 242 240 238 236 235 234 234 236 236 238 239 241 239 234 230 229 229 232 235 233 229 228 230 233 235 237 237 236 234 231 231 233 236 238 239 238 237
223 217 211 201 190 192 194 204 228 244 256 264 268 272 276 279 283 285 286 286 287 287 286 285 285 285 286 286 283 276 270 266 263 260 255 255 256 252 246 243 242 242 244 247 252 253 250 246 244 242 240 238 237 238 238 239 240 240 238 238 239 236 231 230 230 230 233 236 234 230 229 231 234 236 237 237 237 236 234 234 236 238 238 238 236
229 227 227 212 198 196 192 209 238 255 263 269 272 274 277 280 283 285 287 288 287 287 286 286 286 287 287 287 285 277 270 267 262 256 251 252 253 250 247 243 241 242 246 249 250 252 251 247 244 244 244 244 244 243 242 242 244 244 242 241 242 239 233 231 233 233 233 236 237 233 230 231 233 235 236 236 237 238 238 236 236 237 238 238 236
234 231 233 220 212 208 196 226 254 268 273 275 276 277 277 279 281 282 283 285 286 286 286 285 285 287 289 289 287 281 276 271 261 247 244 246 247 245 242 240 242 246 251 252 251 252 254 254 249 248 252 254 254 251 248 246 246 247 247 246 247 246 240 236 235 237 238 239 241 239 235 232 234 236 237 236 236 237 239 239 237 237 238 239 238
241 239 242 236 232 225 212 241 266 274 279 280 279 279 279 279 279 279 279 281 284 285 284 283 283 285 288 289 289 287 281 271 257 244 243 246 248 249 244 240 242 247 253 256 255 256 258 259 258 258 258 259 259 258 255 251 249 250 250 249 249 249 247 244 240 238 240 241 242 243 241 237 235 236 237 236 235 235 238 240 239 238 238 238 239
252 248 245 243 241 234 229 252 268 274 279 280 281 281 281 281 279 277 277 278 280 281 282 282 283 285 287 287 286 287 283 269 253 245 246 247 250 252 246 242 242 247 253 257 260 261 261 262 264 266 263 263 264 263 258 251 249 250 251 251 250 249 248 246 243 239 238 239 240 242 244 244 241 238 237 237 236 236 237 239 240 240 240 240 240
254 244 239 242 237 230 243 258 268 275 281 283 285 287 288 288 284 279 276 277 281 282 282 283 285 286 284 283 281 282 279 267 258 252 250 249 248 248 247 246 247 251 255 257 260 262 263 264 266 267 265 265 265 262 257 252 251 254 256 253 251 251 249 247 244 240 238 238 239 239 242 246 248 244 239 237 238 238 239 240 240 240 241 242 242
247 238 229 244 230 232 256 265 277 282 284 286 288 291 293 292 288 282 278 279 284 287 286 285 286 285 283 280 278 277 275 269 267 261 256 253 247 244 247 248 248 250 254 256 257 259 262 263 264 266 264 262 259 258 259 258 259 262 262 258 254 252 251 249 246 243 240 239 240 239 239 242 246 248 244 239 238 240 241 242 242 241 241 241 242
234 232 213 4 237 247 272 275 284 284 283 286 289 293 293 294 292 288 284 282 283 286 287 286 285 284 282 280 278 275 274 271 266 259 251 248 242 240 243 243 243 246 250 252 253 253 256 258 259 260 261 260 255 255 259 261 261 259 259 261 260 257 255 253 251 247 243 240 240 239 238 237 238 244 246 242 239 240 242 244 244 244 242 241 241
223 223 220 5 325 255 280 283 285 284 284 287 289 291 292 293 293 291 288 284 282 283 284 285 283 282 281 278 276 273 271 267 261 257 250 243 237 237 240 240 242 245 247 248 249 250 252 255 256 259 264 265 258 254 257 261 260 255 253 257 261 261 259 255 251 247 243 241 240 240 240 238 236 238 242 244 242 241 242 244 245 245 245 243 241
220 241 297 327 315 281 289 291 289 285 283 286 286 286 288 289 290 289 288 286 285 285 285 286 286 283 279 275 272 270 270 268 266 262 255 249 243 239 239 240 243 246 247 249 251 253 254 255 256 261 266 267 263 258 257 259 259 254 251 254 258 259 259 256 253 247 241 240 241 242 243 242 239 238 239 241 242 243 242 243 244 246 246 245 243
228 275 301 309 310 297 292 294 295 288 282 282 281 280 281 284 286 287 288 289 290 291 290 289 289 287 283 277 272 270 272 272 271 266 257 252 249 245 242 242 243 246 249 251 254 257 258 257 257 260 262 263 262 261 259 257 256 253 253 254 256 257 258 257 257 253 245 240 243 245 246 245 241 239 239 240 241 243 243 242 243 245 246 246 244
254 292 302 304 310 303 295 297 298 291 283 279 275 275 276 278 283 287 291 294 294 294 294 292 290 289 286 283 278 272 270 271 270 265 257 253 251 249 248 247 248 250 253 255 256 258 259 259 258 258 258 258 259 261 260 256 253 252 254 256 256 257 257 257 258 257 251 244 244 245 246 246 243 240 240 241 241 243 243 241 240 242 245 246 244
276 297 301 303 309 305 301 301 300 294 287 281 276 275 276 279 284 291 298 303 302 299 298 297 295 291 287 285 280 275 270 267 266 263 259 257 256 255 252 251 251 251 253 255 257 258 259 259 259 257 256 257 257 258 261 258 252 250 254 257 257 258 258 258 259 259 255 249 247 247 245 244 244 243 243 243 244 245 244 239 236 238 242 244 243
284 295 297 302 305 303 301 300 303 300 291 285 279 279 282 285 288 293 302 308 309 307 302 300 299 296 292 285 280 277 274 271 269 267 264 263 261 259 256 253 251 250 252 253 255 257 257 257 257 256 255 256 256 255 256 256 251 249 253 255 256 258 258 259 261 260 259 256 255 253 248 245 245 245 246 247 247 246 243 237 234 236 239 242 242
279 285 290 296 298 295 290 290 301 303 294 285 281 283 284 286 292 298 304 307 307 306 302 298 298 298 294 288 281 276 274 274 273 272 270 267 266 265 262 258 255 253 253 253 253 254 254 255 255 256 256 256 257 256 254 253 251 249 251 252 254 256 258 258 260 260 260 261 262 262 257 254 252 246 244 246 248 247 242 235 232 234 238 242 242
266 274 284 289 290 287 281 281 292 297 292 285 282 282 281 283 292 299 304 307 307 306 303 300 300 299 296 291 284 278 273 271 272 274 274 272 271 269 267 265 262 259 256 254 253 253 254 256 256 256 256 255 256 256 255 253 253 252 250 250 252 255 256 257 259 260 261 263 263 262 259 261 263 254 245 245 247 247 241 234 231 233 236 240 242
264 270 277 280 281 280 277 278 282 287 288 286 282 279 275 274 281 292 302 308 308 307 306 304 302 300 298 294 288 283 278 273 271 272 274 275 274 272 270 269 267 264 261 258 257 256 256 257 256 255 254 255 254 254 254 253 253 253 250 248 249 252 254 254 257 258 259 260 260 260 260 259 261 258 251 249 247 245 241 236 233 234 236 239 241
263 266 270 272 271 270 271 273 274 279 284 284 282 279 274 268 270 285 298 305 307 306 305 303 299 297 296 294 291 287 283 280 277 275 276 277 276 275 273 271 271 269 266 262 260 258 257 256 256 256 256 255 254 253 253 253 253 252 251 250 248 249 251 251 252 255 257 259 260 262 263 261 258 256 254 255 251 244 240 238 237 237 238 240 241
262 265 267 264 261 260 263 266 269 274 278 280 282 281 278 272 269 278 290 300 304 305 307 306 302 300 297 295 292 289 286 283 281 278 276 275 274 273 272 271 270 269 266 263 260 258 257 256 256 257 257 256 255 254 253 253 253 253 252 252 251 250 251 251 251 253 255 257 260 263 265 263 259 256 256 258 255 244 238 238 239 240 241 242 243
261 264 262 258 255 255 257 261 267 271 272 275 277 279 283 281 273 275 284 292 299 303 308 311 310 307 304 301 296 292 288 284 282 280 278 275 272 269 267 267 267 266 265 263 260 257 256 255 255 256 256 256 256 255 254 254 254 254 252 252 252 252 252 252 252 252 254 255 257 259 259 259 258 256 256 258 255 242 234 236 238 241 244 245 246
259 257 258 259 259 258 258 259 262 265 268 271 272 275 281 284 279 276 279 287 298 305 310 313 313 309 305 302 298 293 289 285 282 282 281 279 276 272 269 268 267 266 265 263 261 259 257 255 254 255 256 256 256 256 255 255 254 254 254 253 253 252 252 253 252 252 253 254 255 255 254 255 256 252 248 249 246 238 234 237 239 240 244 244 245
259 259 262 265 266 266 263 261 261 265 269 273 275 276 278 281 281 278 279 287 296 304 311 314 310 305 301 298 296 292 287 283 281 281 283 283 281 278 274 272 271 268 266 264 262 260 258 255 254 253 255 255 255 255 255 256 255 255 255 255 254 253 252 253 253 252 252 253 253 252 251 251 250 247 246 247 245 242 245 252 253 248 246 245 243
268 269 269 268 268 269 267 265 264 266 269 271 276 280 280 280 281 280 281 286 292 299 307 311 306 298 294 293 292 290 287 283 281 280 280 281 282 280 277 274 273 270 267 264 261 259 257 255 254 253 253 254 253 253 253 254 255 255 254 255 255 254 252 253 253 252 252 253 254 253 251 251 251 251 252 253 252 251 254 258 259 255 253 254 251